Starlink 11588

operational
NORAD ID: 63319 Int'l Des: 2025-057 Owner: SPXS Country: US Constellation: starlink
LEOCIRCULAR

Starlink 11588について

説明を読み込み中...

リアルタイム位置

3D地球を読み込み中...

次回通過

高度履歴

Altitude vs Time

uPlot chart will show altitude changes over time

軌道要素

1 63319U 25057N 25307.69886022 .00383092 00000-0 28417-2 0 9998
2 63319 42.9994 303.8591 0001093 46.9659 313.1300 15.70938496 37364
Epoch: Nov 3, 2025 • Age: 18 hours

現在のステータス

高度 368.0 km
速度 7.69 km/s
衛星直下点 -41.88°S, 11.25°W
打ち上げ日 Mar 18, 2025
運用期間 0.6 years
タイプ internet

技術仕様

分類 Payload
質量 960.00 kg
乾燥質量 910.00 kg
総質量 960.00 kg
長さ 0.30 m
直径 4.10 m
スパン 29.00 m
形状 Box + pan
製造者 SPXS
バスタイプ Starlink V2MD
フェーズステータス In Orbit
所有者/国 SPXS/US

大規模コンステレーション

Loading constellations...